SCP
-0 0 0 0 -0 -0 -0 -0 -0 0 0 -0 0 -0 -0 -0 -0 -0 0 0 -0 -0 -0 -0 0 0 0 0 0 -0 -0 -0 -0 -0 0 -0 -0 0 -0 -0 0 0 -0 -0
0 0 0 0 0 -0 -0 0 0 -0 -0 0 0 -0 -0 -0 -0 -0 -0 -0 -0 0 -0 -0 -0 0 0 0 0 0 0 0 0 -0 -0 -0 -0 -0 -0 0 0 0 0 -0
0 0 0 -0 0 0 0 -0 -0 -0 0 0 -0 -0 -0 -0 -0 -0 -0 -0 -0 -0 -0 -0 -0 -0 -0 -0 -0 -0 -0 0 0 0 -0 -0 -0 0 0 0 0 0 0 0
0 -0 -0 -0 -0 0 -0 -0 0 -0 -0 0 -0 -0 -0 -0 -0 -0 -0 -0 -0 -0 -0 -0 -0 -0 -0 -0 -0 -0 -0 -0 0 0 -0 -0 -0 -0 -0 0 0 0 0 0
0 -0 -0 -0 -0 0 -0 -0 0 -0 -0 -0 -0 0 -0 -0 -0 -0 -0 -0 -0 -0 -0 -0 -0 -0 -0 -0 -0 -0 -0 -0 0 0 0 -0 -0 -0 -0 0 0 0 0 0
-0 -0 -0 -0 -0 -0 0 0 0 -0 0 0 0 0 -0 -0 -0 -0 -0 -0 -0 -0 -0 -0 -0 -0 -0 -0 -0 -0 -0 -0 -0 0 0 0 0 0 -0 0 0 0 0 0
-0 -0 -0 -0 -0 0 -0 -0 -0 0 0 -0 -0 0 -0 -0 -0 -0 -0 -0 -0 -0 -0 -0 -0 -0 -0 -0 -0 -0 -0 -0 -0 -0 -0 -0 -0 -0 -0 -0 0 0 0 0
0 -0 -0 0 -0 -0 0 -0 -0 0 0 -0 0 -0 -0 -0 0 -0 -0 0 -0 -0 -0 -0 -0 -0 -0 -0 -0 -0 -0 -0 -0 -0 -0 -0 -0 0 0 0 -0 0 0 0
-0 -0 0 0 0 -0 0 -0 0 -0 0 -0 -0 -0 -0 -0 0 0 -0 -0 -0 -0 -0 -0 -0 -0 -0 -0 -0 -0 -0 0 0 0 -0 -0 -0 -0 0 0 0 -0 0 0
0 -0 0 0 -0 0 -0 0 -0 -0 0 0 -0 0 -0 -0 -0 0 0 -0 0 -0 0 0 0 0 0 -0 -0 -0 0 -0 -0 -0 -0 -0 -0 -0 -0 -0 0 0 0 0
0 -0 0 0 0 0 0 -0 0 0 0 0 0 0 0 0 0 0 -0 -0 -0 -0 0 0 -0 0 0 0 0 0 0 -0 -0 -0 -0 -0 0 0 0 0 0 0 0 0
0 0 -0 0 0 0 0 0 -0 -0 0 0 0 -0 0 0 0 0 0 0 0 0 0 -0 0 0 0 0 -0 -0 0 0 0 -0 0 0 0 0 0 0 0 0 0 0
0 0 0 0 -0 -0 0 0 0 0 0 0 -0 0 0 0 0 1 0 0 0 0 0 0 0 0 0 0 0 0 0 0 0 0 0 0 0 0 0 0 0 0 0 0
0 0 0 0 0 0 0 0 0 0 0 0 0 0 0 0 0 0 0 0 1 1 0 0 0 0 0 0 0 0 0 0 0 0 0 0 0 0 0 0 0 0 1 1
0 -0 0 0 0 0 0 0 0 0 0 0 0 0 0 0 0 0 0 1 1 1 1 1 0 0 0 0 0 0 0 0 0 0 0 0 0 1 1 1 1 1 1 1
0 0 0 -0 0 0 -0 -0 0 -0 -0 -0 -0 -0 0 0 0 0 0 1 1 2 1 1 0 0 0 0 0 0 1 0 0 0 0 0 1 1 0 1 1 1 1 1
0 0 0 -0 0 -0 -0 -0 0 -0 -0 -0 -0 0 0 0 0 1 0 0 1 1 1 0 0 1 1 1 1 1 1 1 1 1 1 1 1 1 0 0 0 0 0 1
0 0 0 0 0 -0 0 0 0 0 0 0 0 0 0 0 0 0 0 0 1 0 0 0 0 1 1 1 1 1 1 1 1 1 1 1 1 1 1 1 1 1 1 1
0 0 0 0 0 0 0 0 0 0 0 0 -0 0 0 0 0 1 1 0 0 0 0 0 0 0 0 0 0 0 0 0 0 0 0 0 1 1 1 1 1 1 1 1
0 0 0 0 0 0 0 0 0 0 0 0 0 0 0 0 0 1 0 0 0 0 0 0 0 0 0 0 0 0 0 0 0 0 0 0 0 0 0 1 1 1 1 1
0 0 0 0 0 0 0 0 0 0 0 0 0 0 0 0 0 0 0 0 0 0 0 0 0 0 0 0 0 0 0 0 0 0 0 0 0 0 0 0 0 0 1 1
0 0 0 0 0 0 0 0 0 0 0 0 0 0 0 0 0 0 0 0 0 0 0 0 0 0 0 0 0 0 0 0 0 0 0 0 0 0 0 0 0 0 0 0
0 0 0 0 0 0 0 0 0 0 0 0 0 0 0 0 0 0 0 0 0 0 0 0 0 0 0 0 0 0 0 0 0 0 0 0 0 0 0 0 0 0 0 0
0 0 0 0 0 0 0 0 0 0 0 0 0 0 0 0 0 0 0 0 0 0 0 0 0 0 0 0 0 0 0 0 0 0 0 0 0 0 0 0 0 0 0 0
0 0 0 0 0 0 0 0 0 0 0 0 0 0 0 0 0 0 0 0 0 0 0 0 0 0 0 0 0 0 0 0 0 0 0 0 0 0 0 0 0 0 0 0
0 0 0 0 0 0 0 0 0 0 0 0 0 0 0 0 0 0 0 0 0 0 0 0 0 0 0 0 0 0 0 0 0 0 0 0 0 0 0 0 0 0 0 0
Wind_Speed_500mb
4 18 18 21 22 22 29 26 22 13 11 9 8 19 27 35 31 34 36 42 44 45 44 43 52 56 63 53 52 49 37 31 33 32 32 31 28 27 25 22 21 19 16 15
19 24 17 13 13 24 19 18 12 15 8 12 5 10 21 31 29 35 40 41 45 48 50 49 55 65 62 57 52 44 41 38 40 33 31 29 27 27 23 21 24 25 23 19
21 27 26 26 22 20 15 12 20 19 4 7 11 16 18 22 25 29 33 39 44 52 56 59 62 66 66 64 60 53 49 47 45 39 33 32 31 30 24 24 24 28 29 29
17 14 18 21 22 21 27 14 11 14 16 6 14 12 18 24 30 30 37 41 48 57 60 61 65 69 72 70 62 56 52 53 52 48 38 37 30 28 23 22 20 22 27 30
7 10 16 26 23 12 11 8 9 10 11 11 9 6 15 21 25 30 42 48 53 59 62 65 68 69 69 63 60 57 55 54 55 52 51 40 39 30 26 24 24 27 26 28
33 35 17 24 15 14 3 7 6 6 7 7 8 15 20 9 7 29 41 49 50 50 55 57 58 59 62 61 59 54 52 59 61 60 56 54 46 39 33 29 27 24 24 24
17 18 10 14 20 10 17 26 10 10 11 17 8 9 18 15 16 10 30 39 43 44 46 48 54 58 58 58 59 59 56 61 64 63 60 55 51 49 48 45 35 30 29 26
10 23 9 4 10 16 9 21 10 6 1 20 4 6 12 9 14 18 20 18 20 25 30 36 43 52 55 56 59 64 62 67 65 65 62 58 57 55 50 51 52 39 35 31
6 10 12 9 3 10 9 16 17 11 5 14 12 13 19 19 24 25 25 24 25 17 11 11 22 35 46 53 56 57 68 70 67 67 67 66 65 63 55 53 46 42 43 36
5 9 8 12 7 8 12 9 13 13 6 11 18 8 21 28 25 21 23 25 27 22 20 19 16 14 21 33 43 48 49 56 55 55 54 52 54 58 56 55 57 49 42 44
8 8 6 13 9 18 8 17 6 9 9 12 15 10 23 26 22 22 23 22 24 25 24 24 24 24 24 22 23 28 33 37 46 55 56 53 48 45 48 47 47 46 48 49
3 13 13 18 7 3 4 11 20 15 14 3 18 16 15 12 17 15 18 21 22 23 26 28 31 33 29 24 20 19 19 20 24 32 42 48 45 44 41 45 41 42 45 50
9 7 16 13 21 13 4 6 6 10 13 9 17 13 12 18 13 12 18 21 20 21 23 29 31 32 27 23 19 16 16 8 10 19 25 28 31 33 39 39 40 41 46 49
6 8 12 15 19 11 7 5 7 18 12 7 17 9 18 18 18 15 14 17 19 18 20 25 29 28 23 19 15 12 8 7 7 12 17 25 30 32 32 35 39 41 47 51
11 17 2 3 6 10 16 18 16 19 19 19 20 6 10 4 2 5 10 20 22 20 18 18 22 19 16 11 8 4 3 7 6 9 12 16 22 22 26 32 36 39 40 46
12 13 10 18 13 18 24 27 27 27 27 28 28 32 16 2 3 8 15 29 27 21 20 19 20 19 14 10 10 7 2 6 8 9 9 13 17 20 26 29 31 34 37 39
18 15 14 23 11 19 25 36 36 31 26 21 24 19 13 7 9 15 23 29 25 24 24 22 21 20 19 16 12 9 6 4 4 2 6 7 8 13 20 26 29 34 39 35
18 19 16 20 23 30 25 7 18 24 24 20 26 7 4 13 17 20 25 30 30 27 22 21 22 21 18 16 12 13 13 11 6 5 8 13 17 18 20 22 22 23 28 35
21 19 18 18 23 28 29 24 19 20 22 18 23 16 20 25 31 26 26 27 28 26 22 20 19 16 14 12 12 12 12 11 9 8 12 15 18 20 24 26 24 26 27 29
20 24 21 16 24 24 9 15 19 11 22 22 21 23 31 31 20 18 28 27 25 21 17 15 15 14 15 15 13 13 15 18 21 25 25 25 26 27 25 25 25 25 29 34
18 21 29 23 22 18 14 9 17 24 5 22 28 33 36 18 22 44 35 28 22 19 16 15 14 14 15 13 10 11 14 24 31 35 38 39 38 36 35 36 34 31 33 36
28 18 22 23 27 28 12 15 30 9 10 19 29 34 36 23 30 38 33 29 23 18 15 13 13 12 5 6 9 10 20 30 34 37 39 42 43 41 37 41 40 40 40 36
32 33 23 20 16 8 11 34 35 3 1 22 32 38 42 33 34 35 32 27 20 15 13 9 7 7 6 13 24 25 30 34 37 36 34 34 36 35 34 34 36 36 35 37
33 30 23 20 26 26 20 18 27 24 14 10 23 37 42 34 33 32 29 24 19 15 12 8 5 2 7 18 25 29 33 34 28 22 22 21 23 33 28 28 26 28 31 35
16 23 30 29 32 8 24 26 23 25 26 19 26 42 42 32 32 31 27 22 18 15 10 7 3 3 10 21 25 25 28 29 25 24 23 23 24 27 28 27 29 31 30 32
28 23 21 23 34 34 31 16 21 20 25 24 35 39 36 35 34 30 24 20 17 14 9 5 2 8 15 21 20 23 22 23 24 23 22 26 28 28 28 29 29 30 39 43
Wind_Direction_500mb
195 283 279 350 342 329 312 310 319 30 119 242 197 154 175 177 174 164 174 178 180 186 182 186 186 186 191 196 199 209 205 209 208 208 211 217 225 231 234 238 244 245 253 254
247 253 20 348 306 304 313 303 356 106 114 199 164 143 166 183 188 179 175 185 182 185 185 188 188 192 196 199 208 212 217 217 212 217 218 220 228 234 236 238 239 245 248 257
272 295 310 308 310 316 279 315 347 342 316 205 230 131 159 196 202 190 189 188 191 191 192 193 194 197 202 208 212 216 219 217 221 216 223 226 229 232 239 243 245 249 253 254
277 303 304 303 302 297 296 13 315 306 297 21 341 112 136 169 194 196 196 195 198 201 203 202 204 206 210 215 218 221 221 223 225 225 219 222 226 236 244 244 249 250 262 260
116 300 298 285 298 300 9 10 328 309 267 255 108 262 102 151 180 195 202 201 206 206 207 209 211 214 216 216 218 220 220 222 220 224 223 228 235 239 249 249 247 267 259 266
266 285 280 281 288 275 269 241 244 228 259 186 53 289 97 95 125 179 195 208 210 210 212 215 217 219 220 220 219 219 219 221 223 226 231 232 235 242 243 248 247 255 253 251
217 209 203 233 247 212 233 253 234 205 195 55 79 234 55 84 106 110 174 199 209 214 216 218 220 220 220 217 218 218 218 223 223 225 230 234 241 250 258 259 254 252 249 246
262 153 175 101 299 332 321 321 317 277 343 109 163 119 86 76 106 125 119 141 175 199 214 222 226 224 222 217 214 216 217 227 224 225 231 237 243 247 252 256 258 247 241 242
222 134 126 52 349 296 118 241 18 292 182 262 95 113 131 128 120 117 117 118 106 105 137 195 219 218 218 216 216 216 219 230 233 238 241 243 247 251 247 251 252 248 239 234
90 273 122 114 233 105 301 359 237 204 269 288 133 214 113 140 130 128 104 101 95 91 83 81 96 162 187 202 210 213 221 227 236 237 244 248 250 255 257 255 255 247 238 243
282 266 132 238 26 340 243 218 222 317 311 304 240 144 116 146 136 120 120 115 96 88 84 86 95 110 124 146 176 195 209 221 237 243 243 245 248 250 256 254 252 249 245 240
56 307 287 357 86 343 318 315 272 280 166 304 311 92 129 131 133 122 118 113 101 96 94 95 101 105 111 120 135 159 182 206 225 229 241 241 249 245 243 250 244 245 243 243
166 247 290 171 173 179 251 47 302 274 281 233 296 101 121 147 149 119 130 124 114 106 107 106 104 101 105 109 118 138 154 182 208 229 227 232 233 242 243 238 243 236 241 242
227 274 297 322 1 5 218 235 312 290 271 242 241 41 143 168 162 145 145 142 125 119 115 110 104 102 104 109 117 139 172 221 243 207 224 225 231 237 242 241 240 238 237 240
266 267 270 313 283 280 300 288 274 272 296 291 293 238 282 181 97 126 181 167 149 136 115 106 103 102 106 115 125 152 233 273 232 242 242 247 241 241 245 243 243 247 242 246
218 259 242 267 237 255 272 273 266 265 269 273 268 268 280 75 219 162 187 174 160 137 118 104 97 94 89 83 87 91 69 257 256 266 262 255 266 262 257 255 254 251 259 255
236 238 238 267 284 283 267 254 254 257 256 252 257 263 121 152 142 127 146 154 140 129 120 111 97 85 77 72 80 68 37 1 346 335 326 332 306 278 268 267 265 266 267 263
221 241 260 272 279 257 273 334 288 278 266 242 258 244 187 121 122 128 134 134 129 123 115 103 96 86 75 71 57 45 38 29 25 350 313 308 309 307 300 295 288 282 270 266
235 243 255 253 246 257 270 256 227 213 236 220 241 196 163 145 128 111 126 128 124 118 111 98 90 84 71 57 35 29 29 22 19 356 343 335 329 321 301 292 300 296 289 274
233 236 242 208 257 261 297 346 201 226 256 184 201 174 167 166 186 133 148 138 124 117 108 101 90 80 73 70 57 26 4 353 343 335 330 325 320 315 312 302 295 285 276 275
189 207 216 224 251 261 255 247 181 215 115 156 179 172 168 180 63 138 145 141 132 119 109 105 99 95 88 76 53 32 354 332 326 322 317 314 310 305 300 294 294 293 286 278
202 213 218 242 253 251 194 187 202 244 135 160 180 176 168 132 131 141 143 141 135 126 116 114 111 101 80 10 10 359 326 322 318 315 311 308 306 304 296 292 289 283 281 284
237 231 241 213 222 161 218 223 208 350 161 191 184 181 173 156 151 152 149 146 143 138 130 129 118 88 48 333 327 326 320 322 322 320 316 315 314 314 310 302 295 292 290 287
207 241 250 228 237 234 225 244 244 244 246 227 210 188 179 170 161 157 155 154 148 143 140 136 135 32 350 338 332 329 324 329 333 325 324 323 326 319 323 311 303 292 286 282
244 174 228 241 243 254 242 253 256 246 238 235 202 187 183 177 167 163 161 156 150 144 135 132 117 346 339 329 331 329 328 330 329 322 318 318 317 323 326 322 313 305 295 282
229 243 228 236 247 230 255 260 244 228 206 185 171 169 174 172 166 164 161 159 156 153 150 150 4 348 339 337 344 338 335 333 334 329 327 318 319 321 323 325 323 317 315 313
Wind_Speed_850mb
4 18 18 21 22 22 29 26 22 13 11 9 8 19 27 35 31 34 36 42 44 45 44 43 52 56 63 53 52 49 37 31 33 32 32 31 28 27 25 22 21 19 16 15
19 24 17 13 13 24 19 18 12 15 8 12 5 10 21 31 29 35 40 41 45 48 50 49 55 65 62 57 52 44 41 38 40 33 31 29 27 27 23 21 24 25 23 19
21 27 26 26 22 20 15 12 20 19 4 7 11 16 18 22 25 29 33 39 44 52 56 59 62 66 66 64 60 53 49 47 45 39 33 32 31 30 24 24 24 28 29 29
17 14 18 21 22 21 27 14 11 14 16 6 14 12 18 24 30 30 37 41 48 57 60 61 65 69 72 70 62 56 52 53 52 48 38 37 30 28 23 22 20 22 27 30
7 10 16 26 23 12 11 8 9 10 11 11 9 6 15 21 25 30 42 48 53 59 62 65 68 69 69 63 60 57 55 54 55 52 51 40 39 30 26 24 24 27 26 28
33 35 17 24 15 14 3 7 6 6 7 7 8 15 20 9 7 29 41 49 50 50 55 57 58 59 62 61 59 54 52 59 61 60 56 54 46 39 33 29 27 24 24 24
17 18 10 14 20 10 17 26 10 10 11 17 8 9 18 15 16 10 30 39 43 44 46 48 54 58 58 58 59 59 56 61 64 63 60 55 51 49 48 45 35 30 29 26
10 23 9 4 10 16 9 21 10 6 1 20 4 6 12 9 14 18 20 18 20 25 30 36 43 52 55 56 59 64 62 67 65 65 62 58 57 55 50 51 52 39 35 31
6 10 12 9 3 10 9 16 17 11 5 14 12 13 19 19 24 25 25 24 25 17 11 11 22 35 46 53 56 57 68 70 67 67 67 66 65 63 55 53 46 42 43 36
5 9 8 12 7 8 12 9 13 13 6 11 18 8 21 28 25 21 23 25 27 22 20 19 16 14 21 33 43 48 49 56 55 55 54 52 54 58 56 55 57 49 42 44
8 8 6 13 9 18 8 17 6 9 9 12 15 10 23 26 22 22 23 22 24 25 24 24 24 24 24 22 23 28 33 37 46 55 56 53 48 45 48 47 47 46 48 49
3 13 13 18 7 3 4 11 20 15 14 3 18 16 15 12 17 15 18 21 22 23 26 28 31 33 29 24 20 19 19 20 24 32 42 48 45 44 41 45 41 42 45 50
9 7 16 13 21 13 4 6 6 10 13 9 17 13 12 18 13 12 18 21 20 21 23 29 31 32 27 23 19 16 16 8 10 19 25 28 31 33 39 39 40 41 46 49
6 8 12 15 19 11 7 5 7 18 12 7 17 9 18 18 18 15 14 17 19 18 20 25 29 28 23 19 15 12 8 7 7 12 17 25 30 32 32 35 39 41 47 51
11 17 2 3 6 10 16 18 16 19 19 19 20 6 10 4 2 5 10 20 22 20 18 18 22 19 16 11 8 4 3 7 6 9 12 16 22 22 26 32 36 39 40 46
12 13 10 18 13 18 24 27 27 27 27 28 28 32 16 2 3 8 15 29 27 21 20 19 20 19 14 10 10 7 2 6 8 9 9 13 17 20 26 29 31 34 37 39
18 15 14 23 11 19 25 36 36 31 26 21 24 19 13 7 9 15 23 29 25 24 24 22 21 20 19 16 12 9 6 4 4 2 6 7 8 13 20 26 29 34 39 35
18 19 16 20 23 30 25 7 18 24 24 20 26 7 4 13 17 20 25 30 30 27 22 21 22 21 18 16 12 13 13 11 6 5 8 13 17 18 20 22 22 23 28 35
21 19 18 18 23 28 29 24 19 20 22 18 23 16 20 25 31 26 26 27 28 26 22 20 19 16 14 12 12 12 12 11 9 8 12 15 18 20 24 26 24 26 27 29
20 24 21 16 24 24 9 15 19 11 22 22 21 23 31 31 20 18 28 27 25 21 17 15 15 14 15 15 13 13 15 18 21 25 25 25 26 27 25 25 25 25 29 34
18 21 29 23 22 18 14 9 17 24 5 22 28 33 36 18 22 44 35 28 22 19 16 15 14 14 15 13 10 11 14 24 31 35 38 39 38 36 35 36 34 31 33 36
28 18 22 23 27 28 12 15 30 9 10 19 29 34 36 23 30 38 33 29 23 18 15 13 13 12 5 6 9 10 20 30 34 37 39 42 43 41 37 41 40 40 40 36
32 33 23 20 16 8 11 34 35 3 1 22 32 38 42 33 34 35 32 27 20 15 13 9 7 7 6 13 24 25 30 34 37 36 34 34 36 35 34 34 36 36 35 37
33 30 23 20 26 26 20 18 27 24 14 10 23 37 42 34 33 32 29 24 19 15 12 8 5 2 7 18 25 29 33 34 28 22 22 21 23 33 28 28 26 28 31 35
16 23 30 29 32 8 24 26 23 25 26 19 26 42 42 32 32 31 27 22 18 15 10 7 3 3 10 21 25 25 28 29 25 24 23 23 24 27 28 27 29 31 30 32
28 23 21 23 34 34 31 16 21 20 25 24 35 39 36 35 34 30 24 20 17 14 9 5 2 8 15 21 20 23 22 23 24 23 22 26 28 28 28 29 29 30 39 43
Wind_Direction_850mb
195 283 279 350 342 329 312 310 319 30 119 242 197 154 175 177 174 164 174 178 180 186 182 186 186 186 191 196 199 209 205 209 208 208 211 217 225 231 234 238 244 245 253 254
247 253 20 348 306 304 313 303 356 106 114 199 164 143 166 183 188 179 175 185 182 185 185 188 188 192 196 199 208 212 217 217 212 217 218 220 228 234 236 238 239 245 248 257
272 295 310 308 310 316 279 315 347 342 316 205 230 131 159 196 202 190 189 188 191 191 192 193 194 197 202 208 212 216 219 217 221 216 223 226 229 232 239 243 245 249 253 254
277 303 304 303 302 297 296 13 315 306 297 21 341 112 136 169 194 196 196 195 198 201 203 202 204 206 210 215 218 221 221 223 225 225 219 222 226 236 244 244 249 250 262 260
116 300 298 285 298 300 9 10 328 309 267 255 108 262 102 151 180 195 202 201 206 206 207 209 211 214 216 216 218 220 220 222 220 224 223 228 235 239 249 249 247 267 259 266
266 285 280 281 288 275 269 241 244 228 259 186 53 289 97 95 125 179 195 208 210 210 212 215 217 219 220 220 219 219 219 221 223 226 231 232 235 242 243 248 247 255 253 251
217 209 203 233 247 212 233 253 234 205 195 55 79 234 55 84 106 110 174 199 209 214 216 218 220 220 220 217 218 218 218 223 223 225 230 234 241 250 258 259 254 252 249 246
262 153 175 101 299 332 321 321 317 277 343 109 163 119 86 76 106 125 119 141 175 199 214 222 226 224 222 217 214 216 217 227 224 225 231 237 243 247 252 256 258 247 241 242
222 134 126 52 349 296 118 241 18 292 182 262 95 113 131 128 120 117 117 118 106 105 137 195 219 218 218 216 216 216 219 230 233 238 241 243 247 251 247 251 252 248 239 234
90 273 122 114 233 105 301 359 237 204 269 288 133 214 113 140 130 128 104 101 95 91 83 81 96 162 187 202 210 213 221 227 236 237 244 248 250 255 257 255 255 247 238 243
282 266 132 238 26 340 243 218 222 317 311 304 240 144 116 146 136 120 120 115 96 88 84 86 95 110 124 146 176 195 209 221 237 243 243 245 248 250 256 254 252 249 245 240
56 307 287 357 86 343 318 315 272 280 166 304 311 92 129 131 133 122 118 113 101 96 94 95 101 105 111 120 135 159 182 206 225 229 241 241 249 245 243 250 244 245 243 243
166 247 290 171 173 179 251 47 302 274 281 233 296 101 121 147 149 119 130 124 114 106 107 106 104 101 105 109 118 138 154 182 208 229 227 232 233 242 243 238 243 236 241 242
227 274 297 322 1 5 218 235 312 290 271 242 241 41 143 168 162 145 145 142 125 119 115 110 104 102 104 109 117 139 172 221 243 207 224 225 231 237 242 241 240 238 237 240
266 267 270 313 283 280 300 288 274 272 296 291 293 238 282 181 97 126 181 167 149 136 115 106 103 102 106 115 125 152 233 273 232 242 242 247 241 241 245 243 243 247 242 246
218 259 242 267 237 255 272 273 266 265 269 273 268 268 280 75 219 162 187 174 160 137 118 104 97 94 89 83 87 91 69 257 256 266 262 255 266 262 257 255 254 251 259 255
236 238 238 267 284 283 267 254 254 257 256 252 257 263 121 152 142 127 146 154 140 129 120 111 97 85 77 72 80 68 37 1 346 335 326 332 306 278 268 267 265 266 267 263
221 241 260 272 279 257 273 334 288 278 266 242 258 244 187 121 122 128 134 134 129 123 115 103 96 86 75 71 57 45 38 29 25 350 313 308 309 307 300 295 288 282 270 266
235 243 255 253 246 257 270 256 227 213 236 220 241 196 163 145 128 111 126 128 124 118 111 98 90 84 71 57 35 29 29 22 19 356 343 335 329 321 301 292 300 296 289 274
233 236 242 208 257 261 297 346 201 226 256 184 201 174 167 166 186 133 148 138 124 117 108 101 90 80 73 70 57 26 4 353 343 335 330 325 320 315 312 302 295 285 276 275
189 207 216 224 251 261 255 247 181 215 115 156 179 172 168 180 63 138 145 141 132 119 109 105 99 95 88 76 53 32 354 332 326 322 317 314 310 305 300 294 294 293 286 278
202 213 218 242 253 251 194 187 202 244 135 160 180 176 168 132 131 141 143 141 135 126 116 114 111 101 80 10 10 359 326 322 318 315 311 308 306 304 296 292 289 283 281 284
237 231 241 213 222 161 218 223 208 350 161 191 184 181 173 156 151 152 149 146 143 138 130 129 118 88 48 333 327 326 320 322 322 320 316 315 314 314 310 302 295 292 290 287
207 241 250 228 237 234 225 244 244 244 246 227 210 188 179 170 161 157 155 154 148 143 140 136 135 32 350 338 332 329 324 329 333 325 324 323 326 319 323 311 303 292 286 282
244 174 228 241 243 254 242 253 256 246 238 235 202 187 183 177 167 163 161 156 150 144 135 132 117 346 339 329 331 329 328 330 329 322 318 318 317 323 326 322 313 305 295 282
229 243 228 236 247 230 255 260 244 228 206 185 171 169 174 172 166 164 161 159 156 153 150 150 4 348 339 337 344 338 335 333 334 329 327 318 319 321 323 325 323 317 315 313